Tracking 29892 objects as of 21-Nov-2024
HD Live streaming from Space Station
objects crossing your sky now

ATLAS 2 CENTAUR R/B

Track ATLAS 2 CENTAUR R/B now!


NORAD ID: 21804
Int'l Code: 1991-083B
Perigee: 815.5 km
Apogee: 41,291.4 km
Inclination: 17.2 °
Period: 753.3 minutes
Semi major axis: 27424 km
RCS: 12.8197 m2 (large)
Launch date: December 7, 1991
Source: United States (US)
Launch site: AIR FORCE EASTERN TEST RANGE (AFETR)

Note: This is a ROCKET BODY
Your satellite tracking list
Your tracking list is empty




NASA's NSSDC Master Catalog

Two Line Element Set (TLE):
1 21804U 91083B   24325.24463739 -.00000228  00000-0  24117-2 0  9990
2 21804  17.1587  77.5628 7379534 343.7062   1.6698  1.91159667230240
Source of the keplerian elements: AFSPC